[[{"header":{"parameterUnit":"m.s-1","parameterCategory":1,"la1":30.2992,"la2":30.254,"lo1":-89.0895,"lo2":-89.0443,"dy":0.0025,"dx":0.0025,"nx":19,"ny":19,"refTime":"2026-05-12T09:00:00:Z","depth":0,"parameterNumber":2,"parameterNumberName":"U-component_of_WINDS"},"data":[0,0,0,-0.8157,-0.8154,-0.8003,-0.8003,-0.7829,-0.7828,0,0,0,0,0,0,0,0,0,0,0,-0.8212,-0.8212,-0.8157,-0.8154,-0.8003,-0.8002,-0.7829,-0.7828,0,0,0,0,0,0,0,0,0,0,0,-0.8213,-0.8212,-0.8211,-0.8153,-0.8003,-0.8002,-0.783,-0.7936,0,0,0,0,0,0,0,0,0,0,-0.8079,-0.8141,-0.8212,-0.8211,-0.8152,-0.8004,-0.8002,-0.7941,-0.793,-0.7905,0,-0.7886,0,-0.7854,-0.7817,-0.7817,0,0,0,-0.8145,-0.8151,-0.8101,-0.8211,-0.8151,-0.8004,-0.8069,-0.7935,-0.7922,-0.789,-0.7883,-0.7876,-0.7851,-0.7816,-0.7815,-0.7702,-0.7702,0,0,-0.8154,-0.8191,-0.811,-0.8093,-0.8117,-0.8074,-0.8064,-0.7926,-0.7922,-0.7883,-0.7872,-0.7849,-0.7815,-0.7814,-0.7702,-0.7702,0,0,0,-0.8183,-0.8197,-0.815,-0.81,-0.8072,-0.807,-0.8059,-0.7928,-0.7909,-0.787,-0.7846,-0.7814,-0.7812,-0.7702,-0.7702,-0.7732,0,0,0,-0.8188,-0.8215,-0.8154,-0.8175,-0.8075,-0.7998,-0.8063,-0.7919,-0.7902,-0.7847,-0.7814,-0.7811,-0.7702,-0.7702,-0.7731,-0.774,0,0,0,-0.8218,-0.8218,-0.82,-0.8178,-0.8114,-0.7999,-0.7972,-0.7914,-0.7888,-0.7817,-0.781,-0.7702,-0.7702,-0.7731,-0.7739,-0.7721,0,0,0,-0.8262,-0.8228,-0.8201,-0.8154,-0.8116,-0.8019,-0.7973,-0.7898,-0.7841,-0.7813,-0.7702,-0.7702,-0.7731,-0.7738,-0.7721,-0.7714,-0.7714,0,0,-0.824,-0.8227,-0.8196,-0.8168,-0.8085,-0.8039,-0.796,-0.7872,-0.783,-0.7747,-0.7744,-0.7732,-0.7739,-0.7721,-0.7703,-0.7704,0,0,0,-0.8202,-0.8181,-0.8151,-0.8098,-0.803,-0.7972,-0.7892,-0.7859,-0.7787,-0.7795,-0.7719,-0.7722,-0.7711,-0.7705,-0.7706,-0.7694,-0.7701,-0.7701,-0.7701,-0.8225,-0.8174,-0.8121,-0.8053,-0.8002,-0.792,-0.7875,-0.7817,-0.778,-0.7763,-0.7738,-0.7734,-0.7729,-0.7729,-0.7717,-0.773,-0.773,-0.773,-0.773,-0.8188,-0.8151,-0.8104,-0.8035,-0.7983,-0.7924,-0.7845,-0.7821,-0.776,-0.7748,-0.7735,-0.7727,-0.7731,-0.7718,-0.7732,-0.7732,-0.7732,-0.7731,-0.7731,-0.8198,-0.8171,-0.8132,-0.8052,-0.7996,-0.7928,-0.7872,-0.7825,-0.7781,-0.7769,-0.7738,-0.7737,-0.7731,-0.7757,-0.7757,-0.7757,-0.7757,-0.7757,-0.7757,-0.8223,-0.8179,-0.8137,-0.8063,-0.8024,-0.7966,-0.7885,-0.7845,-0.7789,-0.776,-0.7759,-0.7725,-0.7741,-0.7746,-0.7757,-0.7757,-0.7757,-0.7757,-0.7757,-0.8205,-0.8202,-0.8138,-0.8099,-0.8009,-0.7957,-0.7899,-0.7822,-0.7783,-0.7757,-0.7725,-0.7744,-0.7727,-0.7726,-0.773,-0.7736,-0.7736,-0.7736,-0.7736,-0.8214,-0.8201,-0.8125,-0.8066,-0.8002,-0.7944,-0.7874,-0.7811,-0.7745,-0.7718,-0.771,-0.7712,-0.7713,-0.7695,-0.7695,-0.7698,-0.7695,-0.7695,-0.7695,-0.82,-0.8179,-0.8128,-0.8064,-0.7991,-0.7929,-0.7862,-0.7796,-0.7721,-0.7692,-0.7695,-0.7697,-0.7699,-0.7702,-0.7673,-0.7673,-0.7678,0,0]},{"header":{"parameterUnit":"m.s-1","parameterCategory":1,"la1":30.2992,"la2":30.254,"lo1":-89.0895,"lo2":-89.0443,"dy":0.0025,"dx":0.0025,"nx":19,"ny":19,"refTime":"2026-05-12T09:00:00:Z","depth":0,"parameterNumber":3,"parameterNumberName":"V-component_of_WINDS"},"data":[0,0,0,-0.5886,-0.5886,-0.5921,-0.5921,-0.5959,-0.596,0,0,0,0,0,0,0,0,0,0,0,-0.5872,-0.5873,-0.5886,-0.5886,-0.5921,-0.5921,-0.5959,-0.596,0,0,0,0,0,0,0,0,0,0,0,-0.5872,-0.5872,-0.5873,-0.5887,-0.5921,-0.5921,-0.5959,-0.5935,0,0,0,0,0,0,0,0,0,0,-0.5903,-0.5887,-0.5872,-0.5873,-0.5887,-0.5921,-0.5921,-0.5934,-0.5937,-0.5941,0,-0.5945,0,-0.5953,-0.5962,-0.5962,0,0,0,-0.5888,-0.5885,-0.5897,-0.5873,-0.5887,-0.5921,-0.5906,-0.5935,-0.5938,-0.5945,-0.5946,-0.5947,-0.5954,-0.5962,-0.5962,-0.5987,-0.5987,0,0,-0.5886,-0.5876,-0.5895,-0.5899,-0.5894,-0.5905,-0.5907,-0.5937,-0.5937,-0.5946,-0.5948,-0.5954,-0.5962,-0.5962,-0.5987,-0.5987,0,0,0,-0.588,-0.5875,-0.5887,-0.5897,-0.5904,-0.5906,-0.5908,-0.5936,-0.5941,-0.5949,-0.5955,-0.5962,-0.5963,-0.5987,-0.5987,-0.5981,0,0,0,-0.5879,-0.5871,-0.5886,-0.588,-0.5903,-0.5921,-0.5906,-0.5939,-0.5943,-0.5955,-0.5962,-0.5963,-0.5987,-0.5987,-0.5981,-0.5979,0,0,0,-0.5871,-0.587,-0.5874,-0.5879,-0.5894,-0.592,-0.5927,-0.594,-0.5946,-0.5962,-0.5963,-0.5987,-0.5987,-0.5981,-0.5979,-0.5984,0,0,0,-0.586,-0.5865,-0.5874,-0.5883,-0.5894,-0.5916,-0.5927,-0.5943,-0.5956,-0.5963,-0.5987,-0.5987,-0.5981,-0.5979,-0.5984,-0.5987,-0.5988,0,0,-0.5861,-0.5865,-0.5871,-0.588,-0.5899,-0.5911,-0.5929,-0.5949,-0.5958,-0.5977,-0.5978,-0.5981,-0.5979,-0.5984,-0.599,-0.599,0,0,0,-0.5868,-0.5873,-0.588,-0.5893,-0.591,-0.5925,-0.5944,-0.5952,-0.5969,-0.5966,-0.5984,-0.5983,-0.5986,-0.5988,-0.5988,-0.5993,-0.5987,-0.5987,-0.5987,-0.5855,-0.587,-0.5882,-0.5902,-0.5914,-0.5935,-0.5947,-0.5961,-0.5969,-0.5974,-0.5979,-0.5982,-0.5984,-0.5984,-0.5988,-0.5981,-0.5981,-0.5981,-0.5981,-0.586,-0.5869,-0.5885,-0.5902,-0.5918,-0.5932,-0.5953,-0.596,-0.5975,-0.5978,-0.5982,-0.5984,-0.5984,-0.5988,-0.5981,-0.5981,-0.5981,-0.5981,-0.5981,-0.5854,-0.5861,-0.5872,-0.5895,-0.5911,-0.593,-0.5946,-0.5959,-0.597,-0.5974,-0.5983,-0.5983,-0.5986,-0.5977,-0.5977,-0.5977,-0.5978,-0.5978,-0.5978,-0.5843,-0.5856,-0.5869,-0.589,-0.5902,-0.5919,-0.5943,-0.5954,-0.597,-0.5978,-0.5978,-0.5988,-0.5981,-0.5979,-0.5978,-0.5978,-0.5978,-0.5978,-0.5978,-0.5844,-0.5847,-0.5866,-0.5878,-0.5906,-0.5922,-0.5939,-0.5963,-0.5974,-0.5982,-0.5991,-0.5983,-0.5988,-0.5988,-0.5987,-0.5987,-0.5987,-0.5987,-0.5987,-0.5839,-0.5844,-0.5868,-0.5888,-0.5908,-0.5926,-0.5949,-0.5968,-0.5987,-0.5996,-0.5998,-0.5997,-0.5997,-0.6001,-0.6001,-0.6,-0.6004,-0.6004,-0.6004,-0.5842,-0.5849,-0.5866,-0.5888,-0.5911,-0.5931,-0.5953,-0.5975,-0.5997,-0.6005,-0.6003,-0.6002,-0.6002,-0.6,-0.6008,-0.6007,-0.6006,0,0]}]]